{"data":{"norad_id":68523,"epoch":"2026-09-19T14:27:53.452800Z","epoch_age_seconds":125136,"freshness":"FRESH","line1":"1 68523U 26068R   26262.60270200  .00011617  00000+0  35438-3 0  9992","line2":"2 68523  53.1584 303.6025 0001318  91.3317 268.7836 15.34403475 26709","mean_motion":15.34403475,"eccentricity":0.0001318,"inclination_deg":53.1584,"raan_deg":303.6025,"arg_perigee_deg":91.3317,"mean_anomaly_deg":268.7836,"bstar":0.00035438,"rev_number":2670,"period_min":93.847545542088,"perigee_km":461.7912904119,"apogee_km":463.59453317665,"semimajor_km":6840.8299117943,"source":"CELESTRAK","updated_at":"2026-09-20T09:00:43.905217Z"}}